TIME,DELAY(SENSOR),PRES,OXYGEN,RAWTEMP,T(OPTODE),TCPHASE,FLUOR,BETA(BETA700),BETA(BETA412),BETA(BETA440),CDOM,C(CSC),ED(ED411.90),ED(ED443.80),ED(ED489.40),ED(ED554.70),LU(LU412.20),LU(LU443.80),LU(LU489.40),LU(LU555.00),COMP,TILTX,TILTY,CHECK
1378071918,5804,922.6199951171875000,123.9590988159179700,402.8181152343750000,10.5167798995971680,42.1056900024414060,94,3557,47,50,54,10087,2146962459,2147515968,2147285568,2147493522,2147086921,2146929380,2147697362,2147123757,2615,-1,8,29998
1378075514,5808,1069.4000244140625000,145.2111968994140600,494.5610046386719000,7.6981348991394040,41.7168083190918000,97,3565,49,50,56,10088,2146962752,2147519808,2147297408,2147504886,2147085604,2146920603,2147719268,2147121746,342,-1,8,14718
1378079114,5805,1102.1199951171875000,157.1020050048828000,520.6956787109375000,6.8859648704528810,41.2200813293457000,98,3607,48,50,55,10045,2146964096,2147519680,2147301961,2147515053,2147088338,2146915373,2147722057,2147119040,308,0,8,57970
1378082714,5805,1108.0100097656250000,174.8162994384765600,523.4498291015625000,6.8000979423522950,39.9687194824218750,97,3616,49,50,55,10049,2146962075,2147519049,2147301257,2147515236,2147088859,2146918153,2147722185,2147117120,1073,0,8,57135
1378086314,5803,1104.6099853515625000,173.8842010498047000,522.8930053710938000,6.8174629211425780,40.0234909057617200,98,3621,48,50,54,10048,2146963986,2147522240,2147301787,2147516050,2147086189,2146914870,2147720868,2147120265,1487,-1,8,55909
1378089914,5805,1109.3100585937500000,172.7440948486328000,522.8389282226562000,6.8191509246826170,40.1031990051269500,97,3626,49,50,54,10047,2146963611,2147515821,2147302838,2147510582,2147085860,2146916196,2147720173,2147121810,1679,-1,8,36946
1378093514,5807,1111.0200195312500000,143.2012023925781200,522.3867187500000000,6.8332519531250000,42.3552207946777340,99,3630,48,50,55,10041,2146962084,2147519232,2147303561,2147512073,2147084352,2146919579,2147721938,2147121609,518,-1,8,6445
1378097114,5804,1110.7700195312500000,153.6376953125000000,508.4027099609375000,7.2685689926147460,41.2754402160644500,98,3623,49,50,54,10069,2146960301,2147519405,2147297920,2147509129,2147089179,2146916544,2147717549,2147120448,3071,-1,8,56242
1378100714,5805,1114.2299804687500000,158.0579986572265600,507.2320861816406000,7.3049478530883790,40.9122505187988300,97,3625,49,50,54,10067,2146960694,2147519972,2147299913,2147511003,2147087853,2146917659,2147716251,2147123181,3288,-1,8,459
1378104314,5807,1110.1800537109375000,145.4129943847656200,506.5038146972656000,7.3275761604309080,41.9025001525878900,99,3636,50,50,55,10069,2146962249,2147521334,2147299465,2147509604,2147084928,2146921782,2147720045,2147121170,3297,-1,8,46804
1378107914,5806,1092.6500244140625000,125.5343017578125000,500.3821105957031000,7.5176382064819340,43.5216598510742200,98,3647,49,50,54,10065,2146959707,2147521362,2147300534,2147512000,2147087789,2146922724,2147718884,2147121554,2407,-1,8,20729
1378111514,5807,1092.4200439453125000,165.2707977294922000,498.9731140136719000,7.5613489151000980,40.2279510498046900,99,3656,48,50,53,10069,2146963008,2147522715,2147298496,2147512603,2147085531,2146918436,2147716059,2147121133,3039,-1,8,46169
1378115114,5802,1093.3399658203125000,158.7230987548828000,499.2098083496094000,7.5540080070495605,40.7235908508300800,99,3661,49,50,54,10070,2146961170,2147518528,2147297481,2147509924,2147085339,2146920512,2147715638,2147122907,3131,-1,8,10621
1378118714,5805,1077.8000488281250000,160.6986999511718800,490.0332031250000000,7.8383769989013670,40.4163589477539060,99,3666,49,50,54,10066,2146961627,2147519030,2147302921,2147509284,2147085696,2146922505,2147716461,2147120502,2117,-1,8,40116
1378122314,5805,1074.2600097656250000,136.8502960205078000,490.1115112304687500,7.8359518051147460,42.3459892272949200,100,3671,48,50,55,10062,2146964452,2147517586,2147302016,2147505901,2147083154,2146917385,2147717632,2147120301,956,-1,8,37836
1378125914,5808,1071.8100585937500000,130.7565002441406200,490.9085998535156000,7.8112740516662600,42.8947105407714840,99,3680,48,51,54,10068,2146962121,2147518400,2147298934,2147507794,2147086153,2146923154,2147714934,2147122752,223,-1,8,50519
1378129514,5805,1055.8699951171875000,136.5532989501953000,480.4637145996094000,8.1343460083007810,42.2117309570312500,100,3684,48,50,54,6977,2146962669,2147518829,2147299520,2147506020,2147080896,2146918582,2147712987,2147122715,3454,-1,8,22144
1378133114,5806,1058.1300048828125000,135.1829071044922000,479.3537902832031000,8.1686382293701170,42.3126296997070300,101,3689,47,50,54,9239,2146965330,2147518902,2147299958,2147502784,2147083428,2146921453,2147714203,2147122587,3284,-1,8,34774
1378136714,5809,1058.2800292968750000,115.2761993408203100,478.4472961425781000,8.1966381072998050,44.1367797851562500,101,3700,48,50,55,9238,2146961737,2147518171,2147298541,2147507254,2147084918,2146921334,2147713636,2147124361,3589,-1,8,64459
1378140314,5804,1036.6500244140625000,125.3841018676757800,471.3020019531250000,8.4171743392944340,43.0627403259277340,101,3703,48,50,54,9148,2146963017,2147517805,2147299977,2147507940,2147082633,2146922898,2147709988,2147122880,3339,-1,8,28226
1378143914,5809,1036.1099853515625000,109.6081008911132800,472.1001892089844000,8.3925542831420900,44.5993003845214840,100,3702,49,50,54,9189,2146962441,2147518665,2147298349,2147507730,2147085458,2146924470,2147714276,2147123437,3593,-1,8,55255
1378147514,5802,1039.0000000000000000,126.9567031860351600,472.4114990234375000,8.3829498291015620,42.9356498718261700,101,3705,48,50,54,10052,2146963410,2147517540,2147295771,2147503597,2147083556,2146926720,2147712237,2147121362,2943,-1,8,25239
1378151114,5805,1021.3699951171875000,128.2709045410156200,456.9032897949219000,8.8606681823730470,42.5637817382812500,101,3700,48,50,54,10056,2146959332,2147519350,2147295442,2147502272,2147084571,2146925302,2147705536,2147123035,3480,-1,8,21167
1378154714,5805,1022.5000000000000000,142.8679962158203000,455.8432922363281000,8.8932695388793950,41.2651901245117200,101,3703,48,50,54,10057,2146963593,2147517933,2147295881,2147504000,2147084699,2146923757,2147707830,2147119808,2804,-1,8,117
1378158314,5804,1023.0499877929688000,144.1712951660156200,454.9498901367187500,8.9207429885864260,41.1417007446289060,101,3711,48,50,54,10058,2146962898,2147521188,2147295698,2147502427,2147085010,2146922934,2147709321,2147120886,3381,-1,8,55071
1378161914,5803,1026.3199462890625000,132.1611938476562500,454.1133117675781000,8.9464645385742190,42.1663589477539060,102,3704,49,50,54,10059,2146965494,2147520274,2147296256,2147504018,2147083501,2146923382,2147705481,2147124470,3229,-1,8,38150
1378165514,5805,1027.9000244140625000,133.2998962402343800,452.7728881835937500,8.9876708984375000,42.0430107116699200,101,3705,49,50,54,10054,2146959003,2147515099,2147297024,2147501485,2147084406,2146921078,2147707693,2147123456,3466,-1,8,35780
1378169114,5809,1023.7199707031250000,142.6107025146484400,453.2532043457031000,8.9729061126708980,41.2443389892578100,103,3713,47,50,54,10059,2146958985,2147516032,2147296996,2147501659,2147084864,2146920210,2147706669,2147123053,226,-1,8,49450
1378172714,5805,1019.5200195312500000,131.2944030761718800,454.1077880859375000,8.9466352462768550,42.2448005676269500,102,3721,48,50,55,10056,2146962605,2147517997,2147297828,2147500105,2147084086,2146921856,2147700534,2147120045,633,-1,8,25937
1378176314,5808,1021.2999877929688000,124.9192962646484400,455.4458923339844000,8.9054918289184570,42.8502616882324200,103,3724,48,50,54,10055,2146961956,2147517741,2147295396,2147499922,2147080594,2146925412,2147708873,2147122651,94,-1,8,13610
1378179914,5809,1022.2700195312500000,136.3612976074218800,454.3316955566406000,8.9397506713867190,41.7994499206543000,102,3734,49,50,53,10053,2146961974,2147516534,2147293394,2147503652,2147081060,2146924754,2147708608,2147121792,11,-1,8,15700
1378183514,5806,1023.5000000000000000,140.1894073486328000,455.5598144531250000,8.9019889831542970,41.4885482788085940,102,3738,48,50,54,10052,2146958253,2147518418,2147296246,2147505298,2147086381,2146926966,2147705938,2147119506,3564,-1,8,11223
1378187114,5807,1024.7299804687500000,146.3618927001953000,455.6984863281250000,8.8977222442626950,40.9713401794433600,103,3742,47,50,54,10048,2146961005,2147516516,2147297316,2147503826,2147083510,2146924032,2147707300,2147122285,3219,-1,8,39049
1378190714,5805,1023.4699707031250000,140.8096923828125000,457.0786132812500000,8.8552761077880860,41.4600715637207000,104,3752,47,50,54,10026,2146960036,2147519387,2147294089,2147502070,2147085101,2146926025,2147711561,2147120795,3382,-1,8,2575
1378194314,5805,1015.7500000000000000,108.0365982055664000,459.3989868164062500,8.7838811874389650,44.5633888244628900,104,3758,49,50,55,10037,2146962249,2147519561,2147297435,2147499629,2147083931,2146923849,2147706834,2147118866,3540,-1,8,11392
1378197914,5805,1022.9899902343750000,134.1544952392578000,457.4335937500000000,8.8443555831909180,42.0424690246582000,104,3762,48,50,53,10042,2146964662,2147518564,2147297024,2147501467,2147085211,2146924708,2147707291,2147124516,106,-1,8,36970
1378201514,5804,1023.6500244140625000,132.1607055664062500,457.3875122070312500,8.8457717895507810,42.2209510803222660,104,3769,49,50,54,10042,2146963401,2147518720,2147294555,2147502171,2147083072,2146923090,2147710829,2147120365,3355,-1,8,60936
1378205114,5804,1026.4699707031250000,153.8686981201172000,457.9428100585937500,8.8286895751953120,40.4025115966796900,104,3775,49,50,54,10044,2146962011,2147520960,2147296228,2147501686,2147082240,2146927314,2147704521,2147123346,3187,-1,8,51037
1378208714,5809,1029.2700195312500000,138.9461975097656200,456.0932006835937500,8.8855838775634770,41.6040916442871100,104,3778,49,50,55,10044,2146962020,2147518930,2147296502,2147499392,2147084178,2146923766,2147708516,2147119424,184,-1,8,3546
1378212314,5806,1030.5300292968750000,132.6430053710937500,454.3800964355469000,8.9382629394531250,42.1278915405273440,105,3781,48,50,54,10040,2146961581,2147512612,2147294573,2147501988,2147083693,2146924726,2147708644,2147121234,3260,-1,8,28588
1378215056,5806,1032.0200195312500000,125.4189987182617200,454.5336914062500000,8.9335403442382810,42.7883110046386700,105,3785,48,50,54,10044,2146963620,2147514331,2147296484,2147501165,2147086080,2146930468,2147709814,2147123894,3209,-1,8,36071
